TimeCDT,TemperatureF,Dew PointF,Humidity,Sea Level PressureIn,VisibilityMPH,Wind Direction,Wind SpeedMPH,Gust SpeedMPH,PrecipitationIn,Events,Conditions,WindDirDegrees,DateUTC
12:53 AM,82.0,68.0,62,29.84,10.0,North,8.1,-,N/A,,Clear,360,2013-06-28 05:53:00
1:53 AM,80.1,70.0,71,29.82,10.0,North,5.8,-,N/A,,Clear,360,2013-06-28 06:53:00
2:53 AM,80.1,68.0,67,29.84,10.0,North,10.4,-,N/A,,Clear,10,2013-06-28 07:53:00
3:53 AM,77.0,68.0,74,29.87,10.0,North,6.9,-,N/A,,Clear,360,2013-06-28 08:53:00
4:53 AM,73.9,69.1,85,29.91,10.0,North,3.5,-,N/A,,Clear,360,2013-06-28 09:53:00
5:53 AM,71.1,69.1,93,29.93,10.0,Calm,Calm,-,N/A,,Clear,0,2013-06-28 10:53:00
6:53 AM,72.0,69.1,91,29.93,10.0,Calm,Calm,-,N/A,,Clear,0,2013-06-28 11:53:00
7:53 AM,75.9,70.0,82,29.95,10.0,Calm,Calm,-,N/A,,Clear,0,2013-06-28 12:53:00
8:53 AM,79.0,70.0,74,29.97,10.0,Calm,Calm,-,N/A,,Clear,0,2013-06-28 13:53:00
9:53 AM,82.0,70.0,67,29.98,10.0,Calm,Calm,-,N/A,,Clear,0,2013-06-28 14:53:00
10:53 AM,84.9,70.0,61,29.97,10.0,Variable,5.8,-,N/A,,Clear,0,2013-06-28 15:53:00
11:53 AM,89.1,71.1,55,29.96,10.0,Variable,5.8,-,N/A,,Clear,0,2013-06-28 16:53:00
12:53 PM,90.0,66.9,46,29.94,10.0,Calm,Calm,-,N/A,,Clear,0,2013-06-28 17:53:00
1:53 PM,91.9,66.9,44,29.92,10.0,North,5.8,-,N/A,,Clear,10,2013-06-28 18:53:00
2:53 PM,93.9,64.0,37,29.90,10.0,Variable,3.5,-,N/A,,Clear,0,2013-06-28 19:53:00
3:53 PM,93.9,64.9,38,29.88,10.0,Calm,Calm,-,N/A,,Clear,0,2013-06-28 20:53:00
4:53 PM,93.9,66.9,41,29.86,10.0,Calm,Calm,-,N/A,,Clear,0,2013-06-28 21:53:00
5:53 PM,95.0,68.0,41,29.84,10.0,Variable,3.5,-,N/A,,Partly Cloudy,0,2013-06-28 22:53:00
6:53 PM,90.0,68.0,48,29.84,10.0,North,12.7,-,N/A,,Clear,10,2013-06-28 23:53:00
8:53 PM,81.0,63.0,54,29.86,10.0,Variable,4.6,-,N/A,,Clear,0,2013-06-29 01:53:00
9:53 PM,77.0,61.0,58,29.86,10.0,Calm,Calm,-,N/A,,Clear,0,2013-06-29 02:53:00
10:53 PM,72.0,59.0,64,29.87,10.0,Calm,Calm,-,N/A,,Clear,0,2013-06-29 03:53:00
11:53 PM,71.1,60.1,68,29.87,10.0,Calm,Calm,-,N/A,,Clear,0,2013-06-29 04:53:00